Location: Burla
(50.9568°N, 10.4983°E)
Time: 07:07:55
(UTC+00:00)

COSMO-SKYMED 1 - Pass Details

Date: 18 January 2026
Orbit: 577 x 579 km, 97.9° (Epoch: 17 February)

Event Time Altitude Azimuth Distance (km) Brightness Sun altitude
Rises 04:22:01 0° 156° (SSE) 2,789 6.2 -26.2°
Reaches altitude 10° 04:24:10 10° 153° (SSE) 1,895 5.4 -25.8°
Maximum altitude 04:28:14 63° 72° (ENE) 651 2.8 -25.2°
Enters shadow 04:28:44 57° 34° (NE) 687 2.8 -25.1°
